Location: Asheville, NC
(35.6000°N, 82.5500°W)
Time: 15:26:44
(UTC-04:00)

AAUSAT CUBESAT 2 - Pass Details

Date: 10 March 2018
Orbit: 577 x 592 km, 97.5° (Epoch: 25 June)

Event Time Altitude Azimuth Distance (km) Brightness Sun altitude
Rises 20:26:04 0° 202° (SSW) 2,777 ? -23.6°
Reaches altitude 10° 20:28:44 10° 220° (SW) 1,886 ? -24.1°
Maximum altitude 20:31:38 19° 266° (W) 1,419 ? -24.7°
Drops below altitude 10° 20:34:33 10° 311° (NW) 1,903 ? -25.2°
Sets 20:37:16 0° 330° (NNW) 2,811 ? -25.8°
